[[[{"header":{"parameterUnit":"kt","parameterCategory":2,"dx":1,"dy":1,"la1":30.253999710083008,"la2":30.299108505249023,"lo1":-89.0895004272461,"lo2":-89.04439544677734,"nx":28,"ny":28,"refTime":"2022-09-18T21:00:00:Z","depth":"0","parameterNumber":2,"parameterNumberName":"U-component_of_CURRENTS"},"data":[0.0846,0.1053,0.1036,0.1184,0.1228,0.1322,0.1382,0.1496,0.1695,0.2056,0.2382,0.2622,0.3312,0.4317,0.4797,0.4754,0.4346,0.4455,0.4158,0.4091,0.3967,0.3848,0.3824,0.5014,0.5014,0.4108,0.4103,0.4099,0.0563,0.0608,0.0796,0.1,0.109,0.1119,0.1328,0.1418,0.1647,0.1982,0.2228,0.2828,0.3373,0.3705,0.4178,0.4229,0.3769,0.4181,0.3566,0.3416,0.3363,0.3357,0.4467,0.4467,0.4467,0.4467,0.4466,0.4466,0.0065,0.0254,0.0418,0.0655,0.0809,0.0956,0.1127,0.1305,0.1593,0.1872,0.2108,0.24,0.2934,0.317,0.3131,0.3378,0.279,0.3095,0.2943,0.2525,0.2461,0.2401,0.327,0.3266,0.3263,0.326,0.3257,0,-0.032,-0.0266,-0.0035,0.0219,0.0438,0.0661,0.0901,0.1102,0.1251,0.1515,0.1827,0.1997,0.2412,0.2528,0.264,0.2424,0.1743,0.1938,0.2004,0.1835,0.1565,0.1516,0.1009,0.1728,0.1715,0.1706,0.1699,0.1694,-0.0914,-0.0644,-0.0364,-0.022,-0.0108,0.0237,0.04,0.0538,0.0707,0.1073,0.1229,0.1556,0.1643,0.1826,0.1612,0.1509,0.1062,0.1635,0.1104,0.1311,0.1225,0.0819,0.0731,0.1557,0.1574,0.1589,0.16,0,-0.1268,-0.121,-0.0779,-0.0563,-0.049,-0.0175,0.0032,0.0253,0.0384,0.0669,0.0746,0.073,0.0873,0.0573,0.0463,0.019,0.0286,0.0249,0.0549,0.066,0.1054,0.0928,0.1298,0.1278,0.0805,0.082,0.0833,0,-0.1805,-0.149,-0.1392,-0.1154,-0.0753,-0.0749,-0.0359,-0.0323,-0.0193,0.0018,-0.02,-0.0011,-0.043,-0.0358,-0.0678,-0.0498,-0.0617,-0.0703,-0.0615,-0.0487,-0.0435,-0.0219,-0.0331,-0.1184,-0.1189,-0.1194,-0.1198,0,-0.2211,-0.2011,-0.165,-0.1561,-0.1361,-0.1203,-0.1115,-0.1055,-0.0919,-0.0795,-0.0626,-0.0768,-0.0633,-0.086,-0.1023,-0.1276,-0.0922,-0.1254,-0.0864,-0.0826,-0.0495,-0.0433,0.0046,-0.1205,-0.1206,-0.1208,-0.121,0,-0.2633,-0.248,-0.215,-0.1817,-0.1735,-0.1658,-0.1346,-0.133,-0.1311,-0.1285,-0.1328,-0.1392,-0.1407,-0.1703,-0.1679,-0.1796,-0.1801,-0.1842,-0.1819,-0.1354,-0.1372,-0.0626,-0.0277,-0.0152,-0.1522,-0.1527,-0.1531,0,-0.283,-0.2603,-0.2647,-0.2367,-0.2138,-0.2177,-0.2134,-0.2097,-0.2083,-0.1936,-0.2102,-0.194,-0.228,-0.2117,-0.2241,-0.214,-0.2097,-0.2338,-0.1908,-0.189,-0.1485,-0.1254,-0.1008,-0.0398,-0.1598,-0.1591,-0.1586,0,-0.2945,-0.2832,-0.2801,-0.2597,-0.2591,-0.2477,-0.2537,-0.2403,-0.2248,-0.2432,-0.2201,-0.2378,-0.2345,-0.2316,-0.2336,-0.2358,-0.219,-0.2359,-0.2354,-0.2073,-0.184,-0.1397,-0.1307,-0.2274,-0.227,-0.2267,-0.1639,0,-0.2909,-0.2827,-0.2829,-0.2756,-0.2721,-0.2626,-0.263,-0.2626,-0.2621,-0.2597,-0.2535,-0.2599,-0.2471,-0.2548,-0.2556,-0.2457,-0.2341,-0.2438,-0.2391,-0.238,-0.2099,-0.2058,-0.2532,-0.2531,-0.2531,-0.253,0,0,-0.2896,-0.2823,-0.286,-0.2823,-0.2718,-0.2738,-0.2626,-0.2684,-0.2646,-0.2569,-0.2657,-0.2568,-0.2593,-0.2492,-0.2522,-0.2546,-0.2404,-0.2474,-0.2413,-0.2401,-0.2389,-0.2123,-0.2084,-0.2529,-0.2529,-0.2528,-0.2528,0,-0.2839,-0.2855,-0.2858,-0.2815,-0.2756,-0.2717,-0.2709,-0.2654,-0.2646,-0.2642,-0.2606,-0.2595,-0.2582,-0.254,-0.2516,-0.254,-0.2395,-0.2534,-0.2489,-0.2412,-0.2401,-0.239,-0.2127,-0.2092,-0.2527,-0.2527,-0.2527,0,-0.2764,-0.2746,-0.276,-0.2728,-0.2697,-0.2654,-0.2623,-0.2612,-0.2587,-0.2557,-0.256,-0.2547,-0.2509,-0.2504,-0.25,-0.2483,-0.2357,-0.2472,-0.2476,-0.2415,-0.2331,-0.232,-0.231,-0.2429,-0.2428,-0.2428,0,0,-0.2713,-0.2739,-0.2666,-0.2708,-0.2681,-0.2626,-0.2616,-0.2585,-0.2564,-0.2562,-0.2543,-0.2523,-0.2503,-0.2491,-0.248,-0.2473,-0.2354,-0.2462,-0.2466,-0.247,-0.2413,-0.2331,-0.2321,-0.2427,-0.2427,-0.2427,0,0,-0.269,-0.2643,-0.2615,-0.2655,-0.2611,-0.2562,-0.2579,-0.2544,-0.2541,-0.2545,-0.2505,-0.2499,-0.25,-0.2478,-0.2472,-0.2453,-0.2433,-0.2434,-0.2464,-0.2469,-0.2474,-0.2407,-0.2424,0,0,0,0,0,-0.2593,-0.2644,-0.2618,-0.2616,-0.2596,-0.2568,-0.2564,-0.2536,-0.2522,-0.2532,-0.252,-0.2486,-0.2469,-0.2464,-0.2458,-0.2449,-0.2417,-0.2419,-0.242,-0.2458,-0.2464,-0.2469,0,0,0,0,0,0,-0.2592,-0.2591,-0.2615,-0.2571,-0.2565,-0.2568,-0.2539,-0.2533,-0.2521,-0.2519,-0.2491,-0.2484,-0.246,-0.2464,-0.2459,-0.2452,-0.2425,-0.2417,-0.2419,-0.242,-0.246,-0.2465,-0.2469,0,0,0,0,0,-0.259,-0.259,-0.2574,-0.257,-0.2565,-0.2527,-0.2539,-0.2534,-0.2533,-0.2488,-0.2483,-0.2512,-0.2461,-0.2455,-0.2461,-0.2454,-0.2428,-0.2427,-0.2418,-0.242,-0.2421,-0.2462,0,0,0,0,0,0,-0.2589,-0.2587,-0.2572,-0.2568,-0.2566,-0.2526,-0.2523,-0.2535,-0.2503,-0.2496,-0.2507,-0.2505,-0.2461,-0.2457,-0.2452,-0.2457,-0.2431,-0.2429,-0.2428,-0.2419,-0.242,-0.2421,0,0,0,0,0,0,-0.2586,-0.2585,-0.257,-0.2567,-0.2562,-0.2526,-0.2523,-0.2508,-0.2503,-0.2525,-0.2521,-0.2506,-0.2462,-0.2458,-0.2455,-0.2432,-0.2433,-0.2431,-0.243,-0.2429,-0.242,-0.2421,0,0,0,0,0,0,-0.2584,-0.2583,-0.2568,-0.2565,-0.2561,-0.2516,-0.2511,-0.2495,-0.2499,-0.2527,-0.2498,-0.2497,-0.2464,-0.246,-0.2456,-0.2435,-0.2433,-0.2433,-0.2432,-0.2431,-0.243,0,0,0,0,0,0,0,-0.2583,-0.2609,-0.259,-0.2563,-0.256,-0.2527,-0.2526,-0.2526,-0.2499,-0.2498,-0.2498,-0.2497,-0.2442,-0.244,-0.2438,-0.2438,0,0,-0.2433,-0.2432,0,0,0,0,0,0,0,0,-0.2608,-0.2609,-0.259,-0.2589,-0.2588,-0.2527,-0.2526,-0.2526,-0.2499,-0.2498,-0.2498,-0.2497,-0.2441,-0.244,-0.2438,0,0,0,0,0,0,0,0,0,0,0,0,0,0,0,-0.259,-0.2589,0,-0.2527,-0.2526,-0.2526,-0.2499,-0.2498,-0.2498,-0.2498,-0.2441,-0.244,-0.2438,0,0,0,0,0,0,0,0,0,0,0,0,0,0,0,0,0,0,0,0,0,0,0,0,0,0,0,0,0,0,0,0,0,0,0,0,0,0,0,0,0,0,0,0,0,0,0,0,0,0,0,0,0,0,0,0,0,0,0,0,0,0,0,0,0,0,0,0,0]}],[{"header":{"parameterUnit":"kt","parameterCategory":2,"dx":1,"dy":1,"la1":30.253999710083008,"la2":30.299108505249023,"lo1":-89.0895004272461,"lo2":-89.04439544677734,"nx":28,"ny":28,"refTime":"2022-09-18T21:00:00:Z","depth":"0","parameterNumber":3,"parameterNumberName":"V-component_of_CURRENTS"},"data":[0.1578,0.1722,0.1764,0.1895,0.195,0.1965,0.1944,0.1901,0.1883,0.1892,0.1941,0.1965,0.1715,0.024,-0.0915,-0.1309,-0.1785,-0.1971,-0.2176,-0.1688,-0.1654,-0.1622,-0.1682,-0.1944,-0.1944,-0.2843,-0.2849,-0.2853,0.1486,0.1566,0.1708,0.1807,0.1872,0.1872,0.1878,0.185,0.1799,0.1779,0.1651,0.1488,0.0844,0.0182,-0.0615,-0.1168,-0.1582,-0.1441,-0.1627,-0.1744,-0.1193,-0.1242,-0.1415,-0.1415,-0.1415,-0.1415,-0.1415,-0.1414,0.1296,0.1412,0.1503,0.163,0.1708,0.1743,0.1771,0.1753,0.1738,0.1633,0.1479,0.1326,0.0845,0.0144,-0.0343,-0.0996,-0.0971,-0.1086,-0.1063,-0.1218,-0.1426,-0.0856,-0.0932,-0.0932,-0.0932,-0.0932,-0.0932,0,0.1103,0.1135,0.1254,0.1389,0.1473,0.1549,0.1584,0.1611,0.1496,0.146,0.1316,0.1165,0.0699,0.029,-0.018,-0.0439,-0.0808,-0.0673,-0.0854,-0.092,-0.1125,-0.1315,-0.069,-0.0684,-0.0682,-0.0681,-0.068,-0.068,0.0791,0.0932,0.1055,0.1131,0.1184,0.1296,0.1338,0.128,0.1283,0.1164,0.1162,0.0941,0.074,0.0308,-0.0106,-0.0453,-0.0613,-0.0624,-0.0675,-0.0871,-0.0908,-0.1078,-0.1217,-0.0663,-0.0665,-0.0667,-0.0668,0,0.0609,0.0652,0.0856,0.0934,0.0953,0.1073,0.1078,0.1128,0.1058,0.1051,0.1027,0.0793,0.0547,0.0238,-0.0003,-0.0217,-0.0554,-0.0489,-0.0491,-0.0536,-0.0866,-0.0871,-0.111,-0.1281,-0.0625,-0.0627,-0.0629,0,0.0344,0.05,0.0552,0.0661,0.0828,0.0772,0.0891,0.0852,0.0801,0.0801,0.0602,0.0557,0.0256,0.0092,-0.0106,-0.0345,-0.0278,-0.0504,-0.0548,-0.0551,-0.0562,-0.0752,-0.0768,-0.0407,-0.0407,-0.0408,-0.0408,0,0.0098,0.0243,0.043,0.0461,0.0512,0.0565,0.0564,0.05,0.0503,0.0432,0.0418,0.0269,0.0199,0.0058,-0.0205,-0.0229,-0.035,-0.0399,-0.0542,-0.0551,-0.0588,-0.0603,-0.0702,-0.0408,-0.0408,-0.0408,-0.0408,0,-0.0116,-0.0023,0.0193,0.0263,0.0292,0.0345,0.0367,0.037,0.0283,0.0228,0.0146,0.0021,-0.006,-0.0178,-0.0318,-0.0328,-0.0397,-0.0479,-0.0481,-0.0613,-0.0704,-0.0659,-0.0636,-0.082,-0.0544,-0.0545,-0.0545,0,-0.0334,-0.0138,-0.0178,-0.0018,0.0082,-0.0022,0.0002,-0.003,-0.0097,-0.0096,-0.0233,-0.0236,-0.0384,-0.0385,-0.0431,-0.0529,-0.0519,-0.0541,-0.061,-0.0611,-0.0664,-0.0639,-0.0648,-0.0645,-0.0556,-0.0555,-0.0554,0,-0.0511,-0.0447,-0.0424,-0.0346,-0.036,-0.0326,-0.0325,-0.0301,-0.0264,-0.0361,-0.0302,-0.0397,-0.0465,-0.0487,-0.056,-0.0578,-0.0542,-0.0643,-0.0646,-0.0591,-0.0536,-0.0642,-0.0645,-0.0578,-0.0576,-0.0575,-0.0562,0,-0.0624,-0.0576,-0.0551,-0.0486,-0.0486,-0.0432,-0.0474,-0.049,-0.053,-0.0544,-0.0565,-0.0655,-0.0662,-0.0696,-0.0738,-0.0699,-0.0728,-0.0774,-0.0766,-0.0745,-0.0753,-0.0745,-0.086,-0.0863,-0.0864,-0.0866,0,0,-0.0767,-0.0696,-0.077,-0.0698,-0.0661,-0.0737,-0.0639,-0.0675,-0.068,-0.0674,-0.0731,-0.0769,-0.0808,-0.0781,-0.0793,-0.0838,-0.0848,-0.0791,-0.0785,-0.0775,-0.0767,-0.0769,-0.076,-0.0869,-0.087,-0.087,-0.0871,0,-0.0785,-0.0848,-0.0789,-0.0779,-0.0751,-0.0755,-0.0745,-0.0732,-0.0745,-0.0744,-0.0779,-0.081,-0.084,-0.0849,-0.0858,-0.0863,-0.0855,-0.0884,-0.0799,-0.08,-0.0788,-0.0778,-0.0778,-0.0768,-0.0875,-0.0875,-0.0875,0,-0.0845,-0.0842,-0.084,-0.0833,-0.0821,-0.0767,-0.0804,-0.0786,-0.0748,-0.0811,-0.0791,-0.0839,-0.088,-0.0886,-0.0894,-0.0903,-0.087,-0.0895,-0.089,-0.0859,-0.086,-0.0848,-0.0838,-0.0959,-0.0958,-0.0958,0,0,-0.0846,-0.0848,-0.0831,-0.0831,-0.0823,-0.0807,-0.0796,-0.0791,-0.0802,-0.081,-0.0823,-0.0856,-0.0874,-0.088,-0.091,-0.0913,-0.0921,-0.0897,-0.0893,-0.0889,-0.0856,-0.0857,-0.0847,-0.0956,-0.0956,-0.0956,0,0,-0.0842,-0.0832,-0.0833,-0.0836,-0.0819,-0.0801,-0.0792,-0.0786,-0.0809,-0.0816,-0.0832,-0.0839,-0.0853,-0.0887,-0.086,-0.0878,-0.0908,-0.0914,-0.0809,-0.0805,-0.0802,-0.0748,-0.0842,0,0,0,0,0,-0.0828,-0.0831,-0.0833,-0.083,-0.0822,-0.0801,-0.0798,-0.0791,-0.0791,-0.079,-0.0826,-0.081,-0.0892,-0.0868,-0.0869,-0.0822,-0.0928,-0.0933,-0.0938,-0.0808,-0.0804,-0.08,0,0,0,0,0,0,-0.0827,-0.0826,-0.0831,-0.0816,-0.0812,-0.0802,-0.0807,-0.0806,-0.0791,-0.0793,-0.0807,-0.081,-0.0823,-0.0865,-0.0867,-0.0821,-0.0842,-0.093,-0.0934,-0.0938,-0.0806,-0.0803,-0.08,0,0,0,0,0,-0.0826,-0.0825,-0.082,-0.0816,-0.0813,-0.0796,-0.0808,-0.0807,-0.0804,-0.0809,-0.0812,-0.0797,-0.0823,-0.0826,-0.0866,-0.082,-0.084,-0.0841,-0.0933,-0.0936,-0.0939,-0.0805,0,0,0,0,0,0,-0.0825,-0.0831,-0.0819,-0.0816,-0.0818,-0.0797,-0.0797,-0.0808,-0.0823,-0.0823,-0.08,-0.0801,-0.0822,-0.0825,-0.0827,-0.0818,-0.0839,-0.084,-0.084,-0.0935,-0.0938,-0.094,0,0,0,0,0,0,-0.083,-0.0829,-0.0818,-0.0822,-0.082,-0.0797,-0.0798,-0.0805,-0.0824,-0.0815,-0.0815,-0.08,-0.0824,-0.0824,-0.0826,-0.0836,-0.0838,-0.0839,-0.0839,-0.084,-0.0938,-0.094,0,0,0,0,0,0,-0.0829,-0.0828,-0.0823,-0.0822,-0.082,-0.0795,-0.0804,-0.0805,-0.0803,-0.0816,-0.0804,-0.0804,-0.0823,-0.0825,-0.0825,-0.0834,-0.0835,-0.0838,-0.0839,-0.0839,-0.0839,0,0,0,0,0,0,0,-0.0828,-0.0841,-0.0826,-0.0822,-0.0821,-0.0789,-0.0789,-0.0789,-0.0803,-0.0803,-0.0804,-0.0804,-0.0834,-0.0835,-0.0835,-0.0833,0,0,-0.0838,-0.0838,0,0,0,0,0,0,0,0,-0.084,-0.0841,-0.0826,-0.0825,-0.0824,-0.0789,-0.0789,-0.0789,-0.0803,-0.0803,-0.0804,-0.0804,-0.0834,-0.0835,-0.0835,0,0,0,0,0,0,0,0,0,0,0,0,0,0,0,-0.0826,-0.0825,0,-0.0789,-0.0789,-0.0789,-0.0803,-0.0803,-0.0803,-0.0804,-0.0834,-0.0835,-0.0835,0,0,0,0,0,0,0,0,0,0,0,0,0,0,0,0,0,0,0,0,0,0,0,0,0,0,0,0,0,0,0,0,0,0,0,0,0,0,0,0,0,0,0,0,0,0,0,0,0,0,0,0,0,0,0,0,0,0,0,0,0,0,0,0,0,0,0,0,0]}]],[[{"header":{"parameterUnit":"kt","parameterCategory":2,"dx":1,"dy":1,"la1":30.253999710083008,"la2":30.299108505249023,"lo1":-89.0895004272461,"lo2":-89.04439544677734,"nx":28,"ny":28,"refTime":"2022-09-18T21:00:00:Z","depth":"2","parameterNumber":2,"parameterNumberName":"U-component_of_CURRENTS"},"data":[0.036,0.0417,0.0428,0.0492,0.0562,0.0583,0.0562,0.0525,0.0563,0.0595,0.0691,0.0785,0.0878,0.0878,0.0894,0.0943,0.0926,0.089,0.129,0.0998,0.1004,0.1013,0.0768,0,0,0,0,0,0.0326,0.0365,0.0438,0.0526,0.0568,0.0627,0.0596,0.0579,0.0554,0.0662,0.0716,0.0723,0.0788,0.0991,0.1106,0.1163,0.0997,0.119,0.0941,0.0949,0.0956,0.0792,0.0879,0.0878,0.0878,0.0878,0,0,0.0265,0.0315,0.0394,0.0506,0.0581,0.0579,0.0611,0.0601,0.0638,0.074,0.0757,0.0865,0.0964,0.1228,0.129,0.1427,0.1413,0.1355,0.1346,0.1342,0.1209,0.1153,0.1399,0.1401,0.1404,0.1406,0.1407,0,0.0215,0.0245,0.0329,0.0447,0.0523,0.0595,0.0653,0.0691,0.0756,0.0859,0.0899,0.0945,0.1197,0.1196,0.1525,0.147,0.1473,0.1529,0.1736,0.0907,0.0842,0.0886,0.087,0.105,0.1051,0.1051,0.1052,0.1052,0.0078,0.018,0.0305,0.0368,0.0402,0.0556,0.0613,0.0714,0.0739,0.0935,0.0937,0.1194,0.1167,0.1467,0.1467,0.1573,0.1576,0.1546,0.1198,0.1253,0.1307,0.1277,0.1249,0.106,0.1059,0.1058,0.1058,0,-0.003,0.0014,0.0175,0.0282,0.033,0.046,0.0554,0.0657,0.0786,0.0891,0.0937,0.1013,0.1119,0.1202,0.1323,0.125,0.1333,0.1402,0.116,0.1206,0.1236,0.1214,0.1522,0.1528,0.1532,0.1536,0.1539,0,-0.0216,-0.0089,-0.0037,0.0045,0.0235,0.0258,0.0451,0.0523,0.0626,0.0704,0.0733,0.0763,0.0758,0.0886,0.0826,0.0944,0.0991,0.0877,0.0964,0.0737,0.0725,0.0806,0.0797,0.0849,0.0846,0.0843,0.0841,0,-0.0349,-0.0302,-0.0148,-0.0118,0.0004,0.0076,0.0165,0.0275,0.0363,0.0513,0.0603,0.0575,0.0652,0.0636,0.0658,0.0532,0.0835,0.0718,0.0858,0.0868,0.0808,0.0807,0.0838,0.0837,0.0836,0.0835,0.0834,0,-0.0528,-0.0454,-0.0381,-0.0165,-0.0135,-0.0111,0.016,0.0186,0.0293,0.0343,0.0325,0.0365,0.0335,0.0232,0.0314,0.0236,0.0325,0.0375,0.0393,0.054,0.0609,0.0659,0.0702,0.0637,0.0633,0.063,0.0627,0,-0.0541,-0.0498,-0.0451,-0.0366,-0.0272,-0.0194,-0.0155,-0.007,0.002,0.0112,0.009,0.0194,0.002,0.0087,0.003,0.0184,0.0211,0.006,0.0488,0.0502,0.0522,0.0575,0.0351,0.0654,0.0588,0.0592,0.0595,0,-0.0473,-0.0374,-0.0366,-0.0272,-0.0226,-0.0156,-0.0183,-0.0047,0.0039,-0.0063,0.0039,0.0,0.0007,0.0071,0.0088,0.0084,0.0157,0.0149,0.0159,0.0258,0.0453,0.0516,0.055,0.0197,0.02,0.0202,0.0563,0,-0.0269,-0.0233,-0.027,-0.0228,-0.0203,-0.0175,-0.0108,-0.0107,-0.0083,-0.0043,0.0001,0.0039,0.0123,0.0071,0.0135,0.0154,0.0246,0.0276,0.0284,0.0273,0.0442,0.0465,0.0235,0.0238,0.0241,0.0244,0,0,-0.0156,-0.0071,-0.0016,-0.0053,-0.0,0.0069,0.0057,0.0062,0.0066,0.0114,0.0073,0.0162,0.0179,0.0259,0.0242,0.0274,0.0387,0.0198,0.0281,0.0284,0.0288,0.0445,0.0464,0.0249,0.025,0.0251,0.0252,0,-0.0,0.0061,0.001,0.0033,0.0064,0.0135,0.0103,0.0101,0.0106,0.0111,0.0182,0.019,0.0225,0.0287,0.034,0.0315,0.0378,0.0303,0.019,0.0301,0.03,0.03,0.0453,0.0468,0.0259,0.0258,0.0258,0,0.0144,0.0206,0.0186,0.0248,0.0242,0.0233,0.0268,0.0234,0.0231,0.0308,0.0233,0.0292,0.0408,0.0415,0.0406,0.0407,0.0401,0.0342,0.0331,0.0342,0.0462,0.046,0.0459,0.0466,0.0466,0.0465,0,0,0.0225,0.023,0.0299,0.0269,0.0271,0.0282,0.0269,0.0286,0.0314,0.0309,0.0293,0.033,0.0406,0.0388,0.0456,0.0415,0.0522,0.0355,0.0346,0.0337,0.0342,0.0458,0.0458,0.0464,0.0463,0.0463,0,0,0.0242,0.0319,0.0341,0.0328,0.0349,0.0386,0.0338,0.0335,0.0346,0.0329,0.0374,0.0384,0.0384,0.0418,0.0399,0.038,0.0439,0.0443,0.0291,0.028,0.0271,0.0263,0.0397,0,0,0,0,0,0.0347,0.0319,0.034,0.0345,0.0374,0.0386,0.0387,0.0393,0.0347,0.0323,0.0377,0.0345,0.046,0.0446,0.0443,0.0336,0.0443,0.0446,0.045,0.0253,0.0241,0.0231,0,0,0,0,0,0,0.035,0.0357,0.0341,0.0381,0.0388,0.0387,0.0411,0.0412,0.0352,0.0349,0.0345,0.0348,0.0407,0.0444,0.0442,0.0339,0.0397,0.0444,0.0447,0.045,0.0249,0.0239,0.0231,0,0,0,0,0,0.0352,0.0358,0.0403,0.0381,0.0386,0.0397,0.0411,0.0412,0.0342,0.0412,0.0411,0.0338,0.0407,0.0405,0.0443,0.0338,0.0398,0.0397,0.0446,0.0449,0.0451,0.0244,0,0,0,0,0,0,0.0353,0.0353,0.0404,0.0405,0.0378,0.0395,0.0399,0.0411,0.0406,0.0407,0.0417,0.0416,0.0407,0.0406,0.0405,0.0336,0.0398,0.0398,0.0398,0.0448,0.045,0.0452,0,0,0,0,0,0,0.035,0.0354,0.0404,0.0401,0.0402,0.0394,0.0397,0.0394,0.0406,0.041,0.041,0.0416,0.0404,0.0406,0.0405,0.0401,0.0399,0.0398,0.0398,0.0398,0.045,0.0451,0,0,0,0,0,0,0.0352,0.0355,0.04,0.0401,0.0402,0.0418,0.039,0.0413,0.0417,0.0409,0.0417,0.0417,0.0404,0.0404,0.0406,0.0402,0.0401,0.0399,0.0399,0.0398,0.0398,0,0,0,0,0,0,0,0.0353,0.0329,0.0398,0.0401,0.0402,0.042,0.042,0.042,0.0417,0.0417,0.0417,0.0417,0.0401,0.0401,0.04,0.0403,0,0,0.0399,0.0399,0,0,0,0,0,0,0,0,0.0328,0.0329,0.0398,0.0398,0.0399,0.042,0.042,0.042,0.0417,0.0417,0.0417,0.0417,0.0401,0.04,0.04,0,0,0,0,0,0,0,0,0,0,0,0,0,0,0,0.0398,0.0398,0,0.042,0.042,0.042,0.0417,0.0417,0.0417,0.0417,0.0401,0.04,0.04,0,0,0,0,0,0,0,0,0,0,0,0,0,0,0,0,0,0,0,0,0,0,0,0,0,0,0,0,0,0,0,0,0,0,0,0,0,0,0,0,0,0,0,0,0,0,0,0,0,0,0,0,0,0,0,0,0,0,0,0,0,0,0,0,0,0,0,0,0]}],[{"header":{"parameterUnit":"kt","parameterCategory":2,"dx":1,"dy":1,"la1":30.253999710083008,"la2":30.299108505249023,"lo1":-89.0895004272461,"lo2":-89.04439544677734,"nx":28,"ny":28,"refTime":"2022-09-18T21:00:00:Z","depth":"2","parameterNumber":3,"parameterNumberName":"V-component_of_CURRENTS"},"data":[0.0048,0.0178,0.0206,0.0293,0.0383,0.0418,0.0414,0.0307,0.0254,0.0131,0.0099,-0.0087,-0.0217,-0.0388,-0.0593,-0.0655,-0.0512,-0.0685,-0.0539,-0.0307,-0.027,-0.0289,-0.0265,0,0,0,0,0,-0.0023,0.0074,0.018,0.0328,0.0371,0.0466,0.0486,0.0439,0.0383,0.0367,0.0268,0.0032,-0.0248,-0.0297,-0.0488,-0.0658,-0.0581,-0.0656,-0.05,-0.0465,-0.0431,-0.0435,-0.0788,-0.0787,-0.0787,-0.0787,0,0,-0.0114,-0.0039,0.0152,0.0295,0.0403,0.044,0.0456,0.0517,0.0506,0.0506,0.0466,0.0346,0.0175,-0.0176,-0.031,-0.0379,-0.0313,-0.0327,-0.0305,-0.028,-0.0287,-0.0296,-0.0595,-0.0594,-0.0593,-0.0592,-0.0591,0,-0.0123,-0.0029,0.0097,0.0269,0.0381,0.0468,0.0577,0.0589,0.0697,0.0694,0.0665,0.0577,0.0392,0.0163,-0.0054,-0.0121,0.0019,-0.0098,0.0181,0.0124,0.0127,0.0114,0.0145,-0.0091,-0.0087,-0.0084,-0.0082,-0.008,-0.0061,-0.0017,0.0214,0.0301,0.0407,0.0509,0.0583,0.0686,0.0731,0.0801,0.0812,0.0733,0.0655,0.0421,0.0318,0.0171,0.0325,0.0008,0.0098,0.0388,0.0368,0.039,0.041,-0.0035,-0.0041,-0.0045,-0.0049,0,0.0001,0.0133,0.0238,0.0432,0.0489,0.0538,0.0702,0.0721,0.0784,0.0837,0.0846,0.0866,0.0777,0.0744,0.0648,0.0596,0.0498,0.0442,0.0382,0.0331,0.0437,0.045,0.0224,0.0217,0.0211,0.0206,0.0202,0,0.0169,0.0216,0.0449,0.0478,0.0549,0.0678,0.0719,0.0782,0.0851,0.0904,0.0952,0.0959,0.0953,0.0888,0.0878,0.0729,0.0769,0.0698,0.0652,0.061,0.0594,0.0858,0.0864,0.0824,0.0826,0.0827,0.0828,0,0.0255,0.0445,0.0519,0.0564,0.0733,0.0774,0.0835,0.0924,0.0988,0.1015,0.1026,0.1027,0.1007,0.0975,0.095,0.1001,0.0847,0.0899,0.0731,0.072,0.058,0.0558,0.083,0.083,0.083,0.0831,0.0831,0,0.0408,0.0522,0.0636,0.0745,0.0776,0.0842,0.0885,0.0974,0.1043,0.1099,0.112,0.1133,0.1139,0.1181,0.1104,0.114,0.1095,0.1077,0.1069,0.0879,0.0857,0.0646,0.0566,0.0972,0.0974,0.0976,0.0977,0,0.04,0.0561,0.067,0.0766,0.0822,0.0893,0.0987,0.1064,0.1131,0.115,0.1222,0.1238,0.1289,0.1253,0.1264,0.1188,0.1173,0.1251,0.1039,0.1032,0.0898,0.0854,0.0773,0.0606,0.0999,0.0997,0.0995,0,0.0368,0.0585,0.0599,0.064,0.0781,0.0828,0.0963,0.1027,0.1041,0.1165,0.117,0.1294,0.1236,0.1258,0.1251,0.1252,0.1207,0.1213,0.1208,0.1145,0.1052,0.0903,0.0874,0.1182,0.1181,0.1179,0.1012,0,0.0366,0.0469,0.0545,0.0672,0.0747,0.0808,0.0908,0.0957,0.1016,0.1057,0.1118,0.1176,0.1173,0.1214,0.1242,0.1224,0.1178,0.1166,0.1145,0.1165,0.109,0.1077,0.1207,0.1205,0.1204,0.1203,0,0,0.024,0.0361,0.0462,0.0562,0.0609,0.0653,0.0716,0.0808,0.09,0.0922,0.0969,0.1029,0.108,0.1127,0.1163,0.1185,0.1123,0.1191,0.1167,0.1163,0.116,0.1089,0.1078,0.12,0.12,0.1199,0.1199,0,0.0208,0.031,0.0422,0.0478,0.0594,0.0628,0.0649,0.073,0.0798,0.0904,0.0898,0.0929,0.1048,0.1065,0.1097,0.1165,0.1102,0.1168,0.1216,0.1158,0.1156,0.1154,0.1086,0.1077,0.1195,0.1195,0.1196,0,0.0106,0.0206,0.0269,0.0405,0.0482,0.0553,0.0554,0.0659,0.0728,0.0733,0.086,0.0865,0.0912,0.1003,0.1041,0.1038,0.1079,0.1112,0.1118,0.1094,0.103,0.1029,0.1029,0.1032,0.1032,0.1032,0,0,0.008,0.0197,0.0279,0.0399,0.0444,0.0514,0.0573,0.061,0.0689,0.073,0.0781,0.0838,0.0891,0.0946,0.0986,0.1074,0.1013,0.1096,0.1103,0.111,0.1091,0.1028,0.1028,0.1031,0.1031,0.1031,0,0,0.0059,0.0195,0.0217,0.0361,0.0427,0.052,0.061,0.0618,0.0707,0.0733,0.0773,0.0795,0.0878,0.0897,0.0885,0.0989,0.095,0.0955,0.101,0.102,0.1027,0.0995,0.0885,0,0,0,0,0,0.0068,0.0171,0.019,0.0225,0.0405,0.0499,0.0522,0.061,0.0618,0.0661,0.0732,0.0736,0.0901,0.0892,0.0909,0.0949,0.1022,0.1024,0.1025,0.1112,0.1122,0.113,0,0,0,0,0,0,0.0082,0.0121,0.0188,0.0284,0.0326,0.0497,0.0515,0.0539,0.0616,0.0625,0.0723,0.0737,0.0778,0.0885,0.09,0.0937,0.088,0.1023,0.1024,0.1026,0.1115,0.1123,0.113,0,0,0,0,0,0.0093,0.0125,0.0398,0.0283,0.032,0.045,0.0514,0.0535,0.0595,0.0681,0.0699,0.0663,0.0776,0.0793,0.0894,0.093,0.087,0.0875,0.1024,0.1025,0.1026,0.1119,0,0,0,0,0,0,0.0102,0.013,0.0407,0.0421,0.0283,0.0443,0.0472,0.0531,0.0647,0.0667,0.0621,0.0626,0.0775,0.0788,0.0801,0.0927,0.0862,0.0867,0.0871,0.1025,0.1026,0.1026,0,0,0,0,0,0,0.0114,0.0141,0.0414,0.0409,0.0423,0.0436,0.0462,0.0517,0.0645,0.0578,0.0588,0.0621,0.0751,0.0785,0.0795,0.0877,0.0856,0.0861,0.0864,0.0867,0.1025,0.1026,0,0,0,0,0,0,0.0127,0.015,0.0405,0.0416,0.0428,0.0587,0.0484,0.0659,0.0664,0.057,0.0665,0.0666,0.0746,0.0758,0.0791,0.0868,0.0875,0.0856,0.0859,0.0862,0.0863,0,0,0,0,0,0,0,0.0137,-0.0035,0.0332,0.0422,0.0432,0.0553,0.0556,0.0559,0.0664,0.0665,0.0665,0.0666,0.0826,0.0831,0.0837,0.086,0,0,0.0855,0.0858,0,0,0,0,0,0,0,0,-0.0044,-0.0037,0.0332,0.0336,0.0339,0.0553,0.0556,0.0558,0.0664,0.0665,0.0665,0.0666,0.0827,0.0832,0.0837,0,0,0,0,0,0,0,0,0,0,0,0,0,0,0,0.0332,0.0335,0,0.0554,0.0556,0.0558,0.0664,0.0665,0.0665,0.0665,0.0828,0.0832,0.0836,0,0,0,0,0,0,0,0,0,0,0,0,0,0,0,0,0,0,0,0,0,0,0,0,0,0,0,0,0,0,0,0,0,0,0,0,0,0,0,0,0,0,0,0,0,0,0,0,0,0,0,0,0,0,0,0,0,0,0,0,0,0,0,0,0,0,0,0,0]}]],[[{"header":{"parameterUnit":"kt","parameterCategory":2,"dx":1,"dy":1,"la1":30.253999710083008,"la2":30.299108505249023,"lo1":-89.0895004272461,"lo2":-89.04439544677734,"nx":28,"ny":28,"refTime":"2022-09-18T21:00:00:Z","depth":"4","parameterNumber":2,"parameterNumberName":"U-component_of_CURRENTS"},"data":[-0.0115,-0.0093,-0.0076,-0.0033,-0.0004,0.0017,0.0032,0.004,0.0074,0.0092,0.0149,0.0178,0.0282,0.0222,0.0391,0.0411,0.0355,0.0536,0.0538,0.0412,0.04,0.0389,0.0416,0,0,0,0,0,-0.0118,-0.0096,-0.008,-0.0048,-0.0032,-0.0018,-0.0006,-0.0003,0.0014,0.0065,0.0076,0.0153,0.0268,0.0308,0.0389,0.0391,0.0401,0.0489,0.038,0.0404,0.0391,0.0422,0,0,0,0,0,0,-0.0118,-0.0106,-0.0087,-0.0069,-0.0055,-0.0031,-0.0028,0.0005,0.002,0.0056,0.008,0.0148,0.018,0.029,0.0337,0.04,0.0393,0.0382,0.037,0.0358,0.0382,0.04,0.0502,0,0,0,0,0,-0.0115,-0.0106,-0.0097,-0.0078,-0.0067,-0.0056,-0.0041,-0.0026,-0.0011,-0.001,0.0053,0.0116,0.0196,0.0256,0.0322,0.0341,0.0288,0.0331,0.0323,0.0286,0.0294,0.0293,0.0284,0.034,0.0338,0.0337,0.0336,0,-0.0107,-0.0106,-0.0089,-0.0081,-0.0076,-0.0066,-0.0062,-0.0054,-0.0039,-0.0007,0.0009,0.0069,0.0101,0.0208,0.0231,0.0281,0.0283,0.0297,0.0258,0.0272,0.0276,0.027,0.0264,0.0325,0.0326,0.0327,0.0328,0,-0.0097,-0.0097,-0.0094,-0.0086,-0.0082,-0.0075,-0.0067,-0.0057,-0.0046,-0.0023,-0.0014,0.0018,0.0075,0.01,0.012,0.0148,0.0184,0.0212,0.0099,0.0101,0.0245,0.0244,0.0307,0.0311,0.0315,0.0318,0.032,0,-0.0087,-0.009,-0.0085,-0.0085,-0.0079,-0.0082,-0.0072,-0.0061,-0.0049,-0.0031,-0.0016,0.0007,0.0018,0.0047,0.0049,0.0118,0.007,0.0145,0.0157,0.0036,0.0035,0.0036,0.0035,0.0042,0.0042,0.0042,0.0042,0,-0.0085,-0.0085,-0.0089,-0.0088,-0.0087,-0.0084,-0.0077,-0.0062,-0.0051,-0.0026,-0.0011,0.0,0.0018,0.0018,0.0046,0.0027,0.0063,0.0039,0.0131,0.0137,0.0035,0.0034,0.0042,0.0042,0.0042,0.0042,0.0042,0,-0.0085,-0.0085,-0.0088,-0.0093,-0.0091,-0.0084,-0.0074,-0.0063,-0.004,-0.0023,-0.0009,0.0008,0.0014,0.0018,0.0027,0.002,0.0021,0.0025,0.0026,0.0122,0.0129,0.004,0.0034,0.0034,0.0034,0.0033,0.0033,0,-0.0089,-0.0088,-0.0093,-0.009,-0.0088,-0.0079,-0.0074,-0.0056,-0.0032,-0.0009,0.0001,0.0017,0.0019,0.0022,0.0021,0.0025,0.0024,0.0018,0.0023,0.0023,0.0125,0.0145,0.0016,0.0031,0.0032,0.0032,0.0032,0,-0.0093,-0.0099,-0.0099,-0.0099,-0.0089,-0.0076,-0.0069,-0.0048,-0.0033,-0.0004,0.0013,0.0014,0.0027,0.0021,0.0017,0.0016,0.0022,0.001,0.001,0.0027,0.0026,0.013,0.014,0.0016,0.0016,0.0016,0.0031,0,-0.0092,-0.0101,-0.01,-0.0093,-0.0086,-0.0075,-0.0055,-0.0037,-0.0014,0.001,0.0021,0.003,0.0036,0.0029,0.0026,0.0017,0.0014,0.0013,0.0018,0.0009,0.0016,0.0017,0.0004,0.0004,0.0004,0.0004,0,0,-0.0093,-0.01,-0.0096,-0.0091,-0.0085,-0.0058,-0.005,-0.0029,0.0008,0.0018,0.0033,0.0041,0.0043,0.0031,0.0029,0.0023,0.0021,0.0016,0.0008,0.0008,0.0009,0.0015,0.0016,0.0004,0.0004,0.0004,0.0004,0,-0.0088,-0.0099,-0.0102,-0.009,-0.0071,-0.0054,-0.0048,-0.0011,0.0011,0.0026,0.0038,0.0045,0.0041,0.0043,0.0038,0.0023,0.0024,0.0009,0.0004,0.0007,0.0008,0.0008,0.0014,0.0015,0.0003,0.0004,0.0004,0,-0.0082,-0.0081,-0.0086,-0.0076,-0.0059,-0.0046,-0.002,0.0001,0.0017,0.0032,0.0056,0.0059,0.0052,0.0047,0.0044,0.0043,0.0027,0.0024,0.0024,0.0026,0.003,0.003,0.003,0.0032,0.0032,0.0032,0,0,-0.0075,-0.0085,-0.0067,-0.0072,-0.0066,-0.0033,-0.0019,0.0005,0.0027,0.0041,0.0057,0.006,0.0056,0.0054,0.0054,0.0039,0.0043,0.0029,0.0027,0.0026,0.0028,0.0031,0.0031,0.0033,0.0033,0.0033,0,0,-0.0062,-0.0057,-0.0055,-0.0064,-0.0042,-0.0006,0.0003,0.0026,0.0049,0.0052,0.0067,0.007,0.007,0.0062,0.0073,0.0052,0.0055,0.0053,0.0062,0.006,0.0059,0.0065,0.0083,0,0,0,0,0,-0.0052,-0.0063,-0.0063,-0.0062,-0.0042,-0.0017,-0.001,0.0026,0.0042,0.0055,0.0069,0.0073,0.0072,0.0082,0.008,0.0072,0.0043,0.0041,0.0039,0.0048,0.0046,0.0045,0,0,0,0,0,0,-0.0052,-0.0052,-0.0062,-0.0033,-0.0028,-0.0017,0.0008,0.0018,0.0042,0.0049,0.007,0.0073,0.0081,0.0083,0.0081,0.0074,0.0084,0.0042,0.0041,0.0039,0.0047,0.0046,0.0045,0,0,0,0,0,-0.0051,-0.0052,-0.0034,-0.0031,-0.0027,0.0015,0.001,0.0018,0.0045,0.0053,0.0059,0.0073,0.008,0.008,0.0082,0.0074,0.0085,0.0084,0.0041,0.004,0.0039,0.0047,0,0,0,0,0,0,-0.0051,-0.0034,-0.0032,-0.0028,-0.0023,0.0017,0.0023,0.0018,0.0049,0.0055,0.0054,0.0058,0.0079,0.0079,0.0079,0.0075,0.0086,0.0085,0.0085,0.004,0.0039,0.0039,0,0,0,0,0,0,-0.0034,-0.0032,-0.003,-0.0021,-0.0016,0.0018,0.0023,0.0012,0.0048,0.0048,0.0053,0.0055,0.0066,0.0078,0.0078,0.006,0.0087,0.0086,0.0086,0.0085,0.004,0.0039,0,0,0,0,0,0,-0.0032,-0.003,-0.0021,-0.0018,-0.0013,0.0031,0.0008,0.002,0.0075,0.0046,0.0078,0.008,0.0063,0.0065,0.0078,0.006,0.006,0.0087,0.0086,0.0086,0.0086,0,0,0,0,0,0,0,-0.003,-0.0057,-0.0056,-0.0015,-0.0011,0.0003,0.0004,0.0006,0.0076,0.0077,0.0078,0.0079,0.009,0.009,0.0089,0.0059,0,0,0.0087,0.0086,0,0,0,0,0,0,0,0,-0.0056,-0.0057,-0.0056,-0.0055,-0.0055,0.0003,0.0004,0.0005,0.0076,0.0077,0.0078,0.0079,0.009,0.009,0.0089,0,0,0,0,0,0,0,0,0,0,0,0,0,0,0,-0.0056,-0.0055,0,0.0003,0.0004,0.0005,0.0076,0.0077,0.0078,0.0078,0.009,0.0089,0.0089,0,0,0,0,0,0,0,0,0,0,0,0,0,0,0,0,0,0,0,0,0,0,0,0,0,0,0,0,0,0,0,0,0,0,0,0,0,0,0,0,0,0,0,0,0,0,0,0,0,0,0,0,0,0,0,0,0,0,0,0,0,0,0,0,0,0,0,0,0]}],[{"header":{"parameterUnit":"kt","parameterCategory":2,"dx":1,"dy":1,"la1":30.253999710083008,"la2":30.299108505249023,"lo1":-89.0895004272461,"lo2":-89.04439544677734,"nx":28,"ny":28,"refTime":"2022-09-18T21:00:00:Z","depth":"4","parameterNumber":3,"parameterNumberName":"V-component_of_CURRENTS"},"data":[-0.0625,-0.0653,-0.0657,-0.07,-0.0726,-0.0769,-0.0784,-0.0794,-0.0774,-0.0778,-0.0767,-0.0774,-0.077,-0.0787,-0.0777,-0.0782,-0.0831,-0.0822,-0.0821,-0.0922,-0.0929,-0.0935,-0.0918,0,0,0,0,0,-0.0614,-0.0632,-0.0659,-0.0689,-0.0727,-0.0749,-0.078,-0.0789,-0.08,-0.0787,-0.0794,-0.0791,-0.079,-0.0796,-0.0784,-0.083,-0.0879,-0.0817,-0.0902,-0.0926,-0.0934,-0.0914,0,0,0,0,0,0,-0.061,-0.062,-0.0646,-0.0672,-0.0712,-0.0743,-0.0755,-0.0777,-0.079,-0.0822,-0.0809,-0.0832,-0.0852,-0.0846,-0.0857,-0.0863,-0.086,-0.0872,-0.0883,-0.0891,-0.0865,-0.0836,-0.0761,0,0,0,0,0,-0.0609,-0.0622,-0.0638,-0.0668,-0.07,-0.0733,-0.0776,-0.0776,-0.0833,-0.0859,-0.0859,-0.087,-0.0872,-0.0899,-0.0905,-0.0917,-0.102,-0.0985,-0.0989,-0.0994,-0.0982,-0.0955,-0.0957,-0.0964,-0.0965,-0.0966,-0.0966,0,-0.0629,-0.0626,-0.0658,-0.0678,-0.0696,-0.0732,-0.0767,-0.0816,-0.0846,-0.0893,-0.0908,-0.0932,-0.097,-0.0949,-0.0995,-0.101,-0.0997,-0.1005,-0.1011,-0.0995,-0.0966,-0.0965,-0.0964,-0.0973,-0.0972,-0.0972,-0.0971,0,-0.0649,-0.0655,-0.0666,-0.0704,-0.072,-0.0743,-0.0797,-0.0833,-0.0881,-0.0922,-0.0944,-0.1005,-0.1024,-0.1062,-0.1085,-0.1084,-0.1078,-0.105,-0.1113,-0.1084,-0.0978,-0.0974,-0.0983,-0.0981,-0.0979,-0.0977,-0.0976,0,-0.0668,-0.0687,-0.07,-0.0702,-0.0737,-0.0768,-0.0814,-0.0859,-0.0912,-0.0944,-0.1012,-0.1031,-0.1096,-0.1112,-0.1129,-0.1104,-0.1141,-0.1068,-0.1039,-0.1097,-0.1093,-0.1057,-0.1048,-0.1136,-0.1136,-0.1136,-0.1136,0,-0.0641,-0.0697,-0.0706,-0.0717,-0.0746,-0.0776,-0.0809,-0.0866,-0.0892,-0.0966,-0.0985,-0.1064,-0.1082,-0.1111,-0.1119,-0.1121,-0.1136,-0.1118,-0.1044,-0.1038,-0.1054,-0.1045,-0.1136,-0.1136,-0.1136,-0.1136,-0.1137,0,-0.0638,-0.0645,-0.069,-0.0692,-0.0708,-0.0755,-0.0794,-0.0847,-0.0905,-0.0931,-0.0989,-0.1006,-0.1077,-0.1059,-0.1108,-0.1103,-0.1096,-0.1086,-0.1085,-0.0986,-0.0925,-0.0932,-0.1037,-0.1036,-0.1036,-0.1035,-0.1035,0,-0.0559,-0.0604,-0.061,-0.0668,-0.0678,-0.0686,-0.0743,-0.0783,-0.0813,-0.0857,-0.0894,-0.0948,-0.0966,-0.0993,-0.103,-0.103,-0.1055,-0.1042,-0.0987,-0.0985,-0.0903,-0.0982,-0.1033,-0.1027,-0.1028,-0.1029,-0.1029,0,-0.0485,-0.0483,-0.0501,-0.0498,-0.0542,-0.0562,-0.0636,-0.0678,-0.0706,-0.0768,-0.0812,-0.0915,-0.0912,-0.0942,-0.0957,-0.0981,-0.1038,-0.0962,-0.096,-0.0943,-0.1049,-0.098,-0.0978,-0.1026,-0.1028,-0.1029,-0.1024,0,-0.0387,-0.0402,-0.0429,-0.0464,-0.0488,-0.0526,-0.0545,-0.058,-0.0594,-0.0613,-0.0693,-0.0729,-0.0783,-0.0818,-0.0833,-0.0912,-0.0889,-0.086,-0.0807,-0.0885,-0.0872,-0.0877,-0.0793,-0.0791,-0.0789,-0.0788,0,0,-0.0306,-0.0322,-0.0305,-0.0347,-0.036,-0.0346,-0.0396,-0.0425,-0.0469,-0.0487,-0.0493,-0.0593,-0.0622,-0.0709,-0.0763,-0.0767,-0.0761,-0.0774,-0.0853,-0.086,-0.0867,-0.0859,-0.0865,-0.0785,-0.0785,-0.0784,-0.0784,0,-0.0268,-0.025,-0.0285,-0.03,-0.0315,-0.0319,-0.0333,-0.0357,-0.0381,-0.0446,-0.0451,-0.0504,-0.0578,-0.0614,-0.0641,-0.0739,-0.0709,-0.0768,-0.0835,-0.0839,-0.0849,-0.0857,-0.0851,-0.0858,-0.078,-0.078,-0.078,0,-0.021,-0.0201,-0.0209,-0.022,-0.0231,-0.0271,-0.0239,-0.0277,-0.0319,-0.0301,-0.038,-0.0404,-0.0438,-0.0522,-0.0559,-0.0535,-0.0648,-0.0627,-0.0636,-0.0633,-0.0633,-0.0645,-0.0656,-0.0513,-0.0512,-0.0511,0,0,-0.0189,-0.0198,-0.0193,-0.0212,-0.0221,-0.0224,-0.0238,-0.0251,-0.0279,-0.03,-0.0325,-0.0363,-0.0412,-0.0445,-0.0482,-0.0547,-0.0521,-0.0597,-0.0609,-0.062,-0.0622,-0.0625,-0.0638,-0.0509,-0.0509,-0.0508,0,0,-0.0187,-0.0175,-0.0161,-0.0181,-0.0196,-0.0205,-0.0233,-0.0231,-0.0277,-0.0288,-0.0295,-0.0306,-0.0386,-0.0387,-0.0349,-0.0484,-0.043,-0.0438,-0.0492,-0.0507,-0.052,-0.0515,-0.0332,0,0,0,0,0,-0.0147,-0.0169,-0.0155,-0.0155,-0.0167,-0.0198,-0.0203,-0.0221,-0.0214,-0.0249,-0.0277,-0.0269,-0.0383,-0.0349,-0.0355,-0.0421,-0.0473,-0.0479,-0.0485,-0.0569,-0.0586,-0.06,0,0,0,0,0,0,-0.0147,-0.0147,-0.0155,-0.0158,-0.016,-0.0197,-0.0183,-0.0189,-0.0213,-0.0218,-0.0262,-0.0269,-0.028,-0.0345,-0.0351,-0.0414,-0.0329,-0.0475,-0.0481,-0.0485,-0.0575,-0.0588,-0.06,0,0,0,0,0,-0.0147,-0.0147,-0.0162,-0.0159,-0.0161,-0.018,-0.0184,-0.0189,-0.0222,-0.0235,-0.0244,-0.0237,-0.0279,-0.0287,-0.0348,-0.0412,-0.0325,-0.0327,-0.0479,-0.0483,-0.0487,-0.0582,0,0,0,0,0,0,-0.0147,-0.0162,-0.0163,-0.0164,-0.0163,-0.0182,-0.0186,-0.019,-0.024,-0.0246,-0.0208,-0.0211,-0.0278,-0.0285,-0.0291,-0.0413,-0.0322,-0.0324,-0.0325,-0.0482,-0.0485,-0.0488,0,0,0,0,0,0,-0.0161,-0.0163,-0.0164,-0.0168,-0.0171,-0.0183,-0.0186,-0.0208,-0.0241,-0.0212,-0.0215,-0.0209,-0.0272,-0.0283,-0.0288,-0.032,-0.0319,-0.0321,-0.0323,-0.0324,-0.0485,-0.0487,0,0,0,0,0,0,-0.0162,-0.0164,-0.0169,-0.017,-0.0173,-0.0192,-0.0204,-0.0222,-0.0225,-0.0211,-0.0227,-0.0227,-0.027,-0.0276,-0.0285,-0.0315,-0.0319,-0.0319,-0.0321,-0.0322,-0.0322,0,0,0,0,0,0,0,-0.0163,-0.0149,-0.0148,-0.0172,-0.0174,-0.0173,-0.0174,-0.0175,-0.0225,-0.0226,-0.0226,-0.0227,-0.0306,-0.0309,-0.0311,-0.0311,0,0,-0.0319,-0.032,0,0,0,0,0,0,0,0,-0.0148,-0.0148,-0.0148,-0.0148,-0.0148,-0.0174,-0.0174,-0.0175,-0.0225,-0.0226,-0.0226,-0.0227,-0.0307,-0.0309,-0.0311,0,0,0,0,0,0,0,0,0,0,0,0,0,0,0,-0.0148,-0.0148,0,-0.0174,-0.0174,-0.0175,-0.0225,-0.0225,-0.0226,-0.0226,-0.0307,-0.0309,-0.0311,0,0,0,0,0,0,0,0,0,0,0,0,0,0,0,0,0,0,0,0,0,0,0,0,0,0,0,0,0,0,0,0,0,0,0,0,0,0,0,0,0,0,0,0,0,0,0,0,0,0,0,0,0,0,0,0,0,0,0,0,0,0,0,0,0,0,0,0,0]}]]]